Location: Unspecified
(0.0000°N, 0.0000°E)
Time: 00:23:38
(UTC+00:00)

Tiros 8 - Pass Details

Date: 15 May 2026
Orbit: 640 x 662 km, 58.5° (Epoch: 10 June)

Event Time Altitude Azimuth Distance (km) Brightness Sun altitude
Rises 18:53:50 0° 213° (SSW) 2,977 12.2 -13.6°
Reaches altitude 10° 18:56:09 10° 215° (SW) 2,067 11.4 -14.1°
Maximum altitude 19:00:51 68° 298° (WNW) 707 9.0 -15.2°
Drops below altitude 10° 19:05:33 10° 21° (NNE) 2,066 11.2 -16.3°
Sets 19:07:53 0° 24° (NNE) 2,976 12.0 -16.9°
